SCP
0 0 0 0 0 0 0 0 0 0 0 0 0 0 0 0 0 0 0 0 0 -0 -0 0 0 0 0 0 0 0 0 0 0 0 0 0 0 0 0 0 0 0 0 0 0
0 0 0 0 0 0 0 0 0 0 0 0 0 0 0 0 0 0 0 0 0 0 0 0 0 0 0 0 0 0 0 0 0 0 0 0 0 0 0 0 0 0 0 0 0
0 0 0 0 0 0 0 0 0 0 0 0 0 0 0 0 0 0 0 0 0 0 0 0 0 0 0 0 0 0 0 0 0 0 0 0 0 0 0 0 0 0 0 0 0
0 0 0 0 0 0 0 0 0 0 0 0 0 0 0 0 0 0 0 0 0 0 0 0 0 0 0 0 0 0 0 0 0 0 0 0 0 0 0 0 0 0 0 0 0
0 0 0 0 0 0 0 0 0 0 0 0 0 0 0 0 0 0 0 0 0 0 0 0 0 0 0 0 0 0 0 0 0 0 0 0 0 0 0 0 0 0 0 0 0
0 0 0 0 0 0 0 0 0 0 0 0 0 0 0 0 0 0 0 0 0 0 0 0 0 0 0 0 0 0 0 0 0 0 0 0 0 0 0 0 0 0 0 0 0
0 0 0 0 0 0 0 0 0 0 0 0 0 0 0 0 0 0 0 0 0 0 0 0 0 0 0 0 0 0 0 0 0 0 0 0 0 0 0 0 0 0 0 0 0
0 0 0 0 0 0 0 0 0 0 0 0 0 0 0 0 0 0 0 0 0 0 0 0 0 0 0 0 0 0 0 0 0 0 0 0 0 0 0 0 0 0 0 0 0
0 0 0 0 0 0 0 0 0 0 0 0 0 0 0 0 0 0 0 0 0 0 0 0 0 0 0 0 0 0 0 0 0 0 0 0 0 0 0 0 0 0 0 0 0
0 0 0 0 0 0 0 0 0 0 0 0 0 0 0 0 0 0 0 0 0 0 0 0 0 0 0 0 0 0 0 0 0 0 0 0 0 0 0 0 0 0 0 0 0
0 0 0 0 0 0 0 0 0 0 0 0 0 0 0 0 0 0 0 0 0 0 0 0 0 0 0 0 0 0 0 0 0 0 0 0 0 0 0 0 0 0 0 0 0
0 0 0 0 0 0 0 0 0 0 0 0 0 0 0 0 0 0 0 0 0 0 0 0 0 0 0 0 0 0 0 0 0 0 0 0 0 0 0 0 0 0 0 0 0
0 0 0 0 0 0 0 0 0 0 0 0 0 0 0 0 0 0 0 0 0 0 0 0 0 0 0 0 0 0 0 0 0 0 0 0 0 0 0 0 0 0 0 0 0
0 0 0 0 0 0 0 0 0 0 0 0 0 0 0 0 0 0 0 0 0 0 0 0 0 0 0 0 0 0 0 0 0 0 0 0 0 0 0 0 0 0 0 0 0
0 0 0 0 0 0 0 0 0 0 0 0 0 0 0 0 0 0 0 0 0 0 0 0 0 0 0 0 0 0 0 0 0 0 0 0 0 0 0 0 0 0 0 0 0
0 0 0 0 0 0 0 0 0 0 0 0 0 0 0 0 0 0 0 0 0 0 0 0 0 0 0 0 0 0 0 0 0 0 0 0 0 0 0 0 0 0 0 0 0
0 0 0 0 0 0 0 0 0 0 0 0 0 0 0 0 0 0 0 0 0 0 0 0 0 0 0 0 0 0 0 0 0 0 0 0 0 0 0 0 0 0 0 0 0
0 0 0 0 0 0 0 0 0 0 0 0 0 0 0 0 0 0 0 0 0 0 0 0 0 0 0 0 0 0 0 0 0 0 0 0 0 0 0 0 0 0 0 0 0
0 0 0 0 0 0 0 0 0 0 0 0 0 0 0 0 0 0 0 0 0 0 0 0 0 0 0 0 0 0 0 0 0 0 0 0 0 0 0 0 0 0 0 0 0
0 0 0 0 0 0 0 0 0 0 0 0 0 0 0 0 0 0 0 0 0 0 0 0 0 0 0 0 0 0 0 0 0 0 0 0 0 0 0 0 0 0 0 0 0
0 0 0 0 0 0 0 0 0 0 0 0 0 0 0 0 0 0 0 0 0 0 0 0 0 0 0 0 0 0 0 0 0 0 0 0 0 0 0 0 0 0 0 0 0
0 0 0 0 0 0 0 0 0 0 0 0 0 0 0 0 0 0 0 0 0 0 0 0 0 0 0 0 0 0 0 0 0 0 0 0 0 0 0 0 0 0 0 0 0
0 0 0 0 0 0 0 0 0 0 0 0 0 0 0 0 0 0 0 0 0 0 0 0 0 0 0 0 0 0 0 0 0 0 0 0 0 0 0 0 0 0 0 0 0
0 0 0 0 0 0 0 0 0 0 0 0 0 0 0 0 0 0 0 0 0 0 0 0 0 0 0 0 0 0 0 0 0 0 0 0 0 0 0 0 0 0 0 0 0
0 0 0 0 0 0 0 0 0 0 0 0 0 0 0 0 0 0 0 0 0 0 0 0 0 0 0 0 0 0 0 0 0 0 0 0 0 0 0 0 0 0 0 0 0
0 0 0 0 0 0 0 0 0 0 0 0 0 0 0 0 0 0 0 0 0 0 0 0 0 0 0 0 0 0 0 0 0 0 0 0 0 0 0 0 0 0 0 0 0
0 0 0 0 0 0 0 0 0 0 0 0 0 0 0 0 0 0 0 0 0 0 0 0 0 0 0 0 0 0 0 0 0 0 0 0 0 0 0 0 0 0 0 0 0
Wind_Speed_500mb
8 12 15 15 17 18 18 15 19 18 19 19 17 14 13 11 9 9 8 9 5 7 4 4 3 5 11 7 4 4 6 7 13 12 9 7 7 13 20 30 22 17 18 11 11
8 11 13 17 16 18 19 19 20 23 21 21 22 18 13 10 8 8 8 9 8 6 3 4 6 11 7 6 4 6 6 6 5 4 6 10 13 13 11 15 18 27 20 13 11
6 9 10 16 14 14 17 17 22 23 26 28 27 24 20 14 4 5 6 6 8 7 3 4 6 9 6 5 5 7 3 8 6 12 12 10 12 10 33 8 7 18 19 16 16
3 4 6 9 11 12 12 15 18 21 25 27 29 25 19 15 6 3 4 4 5 4 5 6 6 7 6 7 7 12 12 8 2 8 11 8 15 16 9 17 25 23 19 17 20
7 7 7 7 8 10 7 6 9 13 20 26 29 27 19 8 1 11 10 6 4 5 4 5 7 5 9 11 8 9 9 17 18 20 22 18 15 18 30 32 27 26 20 21 23
6 6 7 8 9 8 5 5 6 10 15 23 30 29 18 4 12 13 12 8 6 7 6 8 7 11 14 11 9 11 28 18 16 13 10 17 13 7 24 30 25 18 20 19 21
9 9 8 9 11 13 15 17 18 19 20 24 30 27 12 8 7 10 8 4 2 5 7 10 11 6 10 12 17 24 10 7 15 5 5 10 6 5 41 31 28 22 18 16 20
11 10 7 10 13 17 22 23 23 23 23 23 22 17 9 2 2 5 2 4 6 8 13 14 15 16 10 30 10 8 7 5 3 4 1 4 6 12 37 34 27 22 16 11 13
11 10 6 10 14 18 21 22 19 18 17 16 13 8 7 5 5 8 6 11 11 13 15 15 13 13 14 11 7 9 6 8 2 3 4 7 6 15 34 29 27 22 16 8 7
9 8 4 7 11 15 18 17 16 12 11 8 7 3 4 5 8 9 10 11 9 19 15 8 9 8 8 6 12 13 8 7 7 5 4 6 10 10 32 33 31 26 20 12 4
7 6 4 5 12 14 16 15 10 3 9 12 8 9 7 6 7 7 8 12 12 10 7 10 9 7 6 3 1 10 6 6 1 1 3 10 9 16 31 32 32 31 26 19 11
4 5 3 4 12 13 15 3 1 9 20 16 12 12 9 5 4 6 6 4 6 6 4 10 2 2 2 6 7 7 6 2 1 2 1 2 14 16 28 32 46 42 36 29 21
6 5 3 5 14 14 11 4 11 12 10 9 11 7 5 5 8 9 6 7 11 8 8 8 1 3 5 7 7 5 5 4 2 4 2 6 13 12 16 36 44 44 39 35 28
4 3 3 6 9 13 9 12 13 6 9 4 5 6 5 8 9 10 10 6 11 8 6 9 4 3 6 7 2 7 2 5 7 5 5 4 10 10 13 23 26 54 49 44 38
2 1 2 5 8 15 14 17 7 5 7 3 6 1 7 4 8 7 10 6 8 7 6 1 3 4 6 4 3 5 4 7 5 7 6 2 2 14 10 16 34 45 64 54 46
2 2 4 8 9 11 23 15 4 12 10 6 7 9 4 8 4 5 4 12 13 9 11 5 4 6 4 6 6 10 9 9 7 5 4 6 10 10 13 23 11 39 68 66 56
3 1 5 8 11 15 22 9 10 9 7 10 1 3 5 6 5 6 3 5 9 10 0 6 4 4 3 9 9 4 8 5 8 6 10 4 4 18 11 14 16 44 71 77 62
2 0 3 5 15 22 25 10 9 5 11 4 2 4 4 9 4 2 5 1 4 7 6 11 9 8 2 1 10 8 9 9 13 6 6 5 13 14 11 14 23 38 75 79 68
3 5 7 12 17 25 9 8 14 12 8 12 4 7 9 5 1 3 9 9 11 13 16 9 1 2 5 2 3 7 7 5 13 4 7 7 15 20 5 6 6 23 57 78 71
5 8 10 15 18 20 8 8 4 1 6 1 8 2 8 6 1 1 6 5 5 5 1 9 6 2 3 2 3 7 6 6 5 3 7 8 11 13 8 13 10 18 52 73 65
9 9 7 16 18 7 7 13 8 5 5 3 6 5 7 7 10 6 7 6 3 7 6 6 6 1 5 12 14 2 3 5 3 7 10 2 12 13 10 13 20 31 52 69 62
8 5 12 22 5 4 6 11 6 6 5 5 3 6 11 9 8 5 10 9 7 14 11 7 9 7 13 1 3 6 9 9 8 10 4 4 17 4 9 13 25 36 50 56 52
9 7 11 21 6 4 6 4 4 6 6 5 7 5 5 11 1 8 8 2 12 3 11 9 3 5 11 8 7 6 9 7 7 5 12 10 14 1 5 11 9 36 46 49 44
8 3 5 9 6 12 8 6 3 8 5 8 6 5 5 5 4 5 6 4 10 5 5 6 5 12 13 10 8 5 6 14 11 7 7 22 12 10 7 10 8 19 34 42 41
11 6 11 4 6 9 7 10 8 10 8 13 2 11 13 8 2 9 4 3 2 8 7 7 8 5 7 7 5 8 9 16 24 19 15 26 25 20 15 19 32 30 36 31 27
8 10 10 9 13 10 4 12 17 7 15 9 8 5 12 12 14 13 12 6 10 3 6 5 3 4 9 2 9 13 15 14 30 26 31 38 51 16 22 14 26 40 45 37 33
16 13 8 11 6 8 10 12 14 16 13 6 16 9 12 21 14 2 17 7 10 15 6 7 10 6 10 8 8 20 21 39 15 9 26 21 44 11 6 23 43 50 46 46 33
Wind_Direction_500mb
272 272 277 267 271 269 263 251 246 241 231 224 217 215 214 204 208 212 229 271 252 262 258 201 197 183 164 141 140 121 81 184 188 170 145 44 125 79 93 95 72 79 95 82 26
273 267 259 265 259 259 258 251 247 243 233 227 218 207 202 187 181 201 275 254 254 254 236 174 163 156 136 142 102 84 143 158 15 5 116 87 97 111 109 90 87 85 84 78 64
263 277 277 275 280 284 269 250 239 233 227 219 213 204 200 194 216 259 291 258 257 248 217 158 154 144 112 121 41 53 116 138 47 95 112 101 90 98 126 62 128 131 107 78 56
312 302 282 288 297 288 270 253 237 223 217 212 209 202 196 189 217 317 326 272 241 226 194 162 152 132 108 108 73 91 59 97 103 121 106 100 109 80 87 122 124 114 105 85 57
353 328 311 314 330 318 311 258 227 212 205 202 198 194 186 194 298 320 311 294 241 223 206 168 149 128 111 98 82 86 118 72 81 99 95 121 81 116 115 128 123 116 102 77 60
5 350 3 20 20 13 33 91 137 162 177 182 185 188 190 153 304 317 312 294 249 223 206 179 159 115 95 59 54 108 107 97 71 76 103 110 126 85 150 143 128 122 101 80 56
14 17 40 61 63 65 81 98 112 125 142 163 178 185 186 191 313 316 318 330 187 183 151 164 152 132 102 96 108 125 87 66 35 37 118 115 112 141 159 157 141 129 111 84 58
22 18 51 82 85 101 102 99 103 111 119 134 152 162 126 106 354 345 30 91 139 140 144 142 139 113 82 114 75 70 69 143 20 39 175 106 236 175 170 163 146 140 128 97 63
20 18 44 107 102 119 115 106 106 110 117 129 143 149 87 53 50 56 87 115 128 135 131 136 139 89 114 94 50 12 205 202 216 51 156 167 252 186 180 177 160 160 159 141 77
21 20 35 120 120 127 132 121 114 110 108 110 118 129 72 27 56 66 109 123 114 130 120 111 73 77 43 94 207 189 201 209 207 201 175 189 255 201 189 187 180 179 181 182 170
25 25 31 147 152 145 141 127 126 97 71 71 50 84 70 67 65 55 109 115 109 77 64 29 81 194 155 77 67 141 151 157 26 24 193 215 248 218 193 198 186 190 194 198 203
9 22 31 173 171 166 161 145 135 145 93 68 73 78 70 60 81 65 104 92 76 79 355 34 134 168 350 54 93 95 121 189 318 29 78 353 258 234 205 211 202 197 200 204 206
347 3 28 180 181 177 173 167 149 144 79 54 62 63 50 56 66 19 54 80 80 67 14 143 127 308 122 46 105 49 154 168 76 355 112 332 278 201 229 216 214 215 215 209 214
341 16 45 129 168 185 180 161 151 151 75 333 346 24 24 104 52 51 63 91 47 128 96 87 315 115 80 83 2 160 118 95 98 79 238 23 270 254 209 209 211 215 211 211 210
347 72 112 169 165 168 165 154 123 104 27 351 360 22 41 105 128 42 57 77 96 99 116 208 43 75 88 61 340 125 120 88 74 86 23 189 66 266 150 230 221 209 213 211 211
342 171 153 152 164 166 162 157 87 44 261 327 339 359 21 29 45 92 109 86 109 90 51 91 32 42 89 58 42 141 78 56 58 73 4 216 167 266 191 218 199 207 212 210 207
343 163 151 165 157 156 164 158 42 125 329 297 157 50 15 2 27 30 69 111 144 84 316 1 7 5 114 82 14 63 83 12 354 8 223 152 141 250 243 222 212 197 206 208 205
44 345 136 164 153 154 153 55 92 253 220 194 148 81 99 1 330 28 100 304 296 97 112 151 302 169 103 169 179 185 154 162 204 203 268 328 234 251 213 278 244 223 211 204 201
118 121 108 130 149 157 158 70 204 203 164 154 71 71 319 17 39 309 212 209 205 178 163 126 194 34 56 35 81 216 202 181 102 69 40 226 288 301 218 258 210 198 196 196 197
153 133 114 139 146 157 77 230 180 236 102 171 168 108 183 262 112 219 199 224 168 207 28 197 76 30 137 82 56 152 198 80 1 163 261 280 280 243 283 238 213 191 187 191 194
160 140 141 149 146 155 156 219 233 191 149 181 211 139 190 187 174 222 244 280 192 136 93 123 98 201 56 199 177 92 256 36 125 151 177 245 259 218 233 229 207 206 195 190 193
184 67 162 161 94 31 151 187 169 176 189 230 152 154 173 152 166 246 227 213 188 157 166 193 134 174 206 152 61 160 205 162 137 240 230 153 265 293 257 303 221 212 201 197 199
162 120 169 177 136 281 319 303 218 137 189 177 211 196 190 177 136 200 218 345 170 138 168 204 270 27 340 354 6 210 194 163 118 103 207 142 266 59 329 327 257 218 210 207 210
167 62 123 180 140 132 134 246 204 197 199 165 181 107 117 187 179 227 243 177 176 179 130 116 94 170 191 200 131 203 230 183 143 143 164 231 303 292 260 259 235 210 207 207 212
179 201 164 211 250 119 107 156 162 211 209 195 215 197 165 166 26 221 172 141 198 197 110 118 195 160 263 233 167 214 186 194 205 205 189 261 226 237 225 222 221 203 181 183 202
204 158 152 122 140 104 338 216 189 189 149 246 188 216 166 172 184 196 139 193 205 28 129 17 227 89 305 314 224 268 220 215 227 234 253 264 271 181 257 246 223 211 204 215 242
209 187 164 155 87 98 216 199 207 158 212 199 186 136 192 233 196 272 181 163 172 153 157 124 131 95 266 343 325 287 209 208 204 208 215 224 246 160 252 224 236 231 216 235 250
Wind_Speed_850mb
8 12 15 15 17 18 18 15 19 18 19 19 17 14 13 11 9 9 8 9 5 7 4 4 3 5 11 7 4 4 6 7 13 12 9 7 7 13 20 30 22 17 18 11 11
8 11 13 17 16 18 19 19 20 23 21 21 22 18 13 10 8 8 8 9 8 6 3 4 6 11 7 6 4 6 6 6 5 4 6 10 13 13 11 15 18 27 20 13 11
6 9 10 16 14 14 17 17 22 23 26 28 27 24 20 14 4 5 6 6 8 7 3 4 6 9 6 5 5 7 3 8 6 12 12 10 12 10 33 8 7 18 19 16 16
3 4 6 9 11 12 12 15 18 21 25 27 29 25 19 15 6 3 4 4 5 4 5 6 6 7 6 7 7 12 12 8 2 8 11 8 15 16 9 17 25 23 19 17 20
7 7 7 7 8 10 7 6 9 13 20 26 29 27 19 8 1 11 10 6 4 5 4 5 7 5 9 11 8 9 9 17 18 20 22 18 15 18 30 32 27 26 20 21 23
6 6 7 8 9 8 5 5 6 10 15 23 30 29 18 4 12 13 12 8 6 7 6 8 7 11 14 11 9 11 28 18 16 13 10 17 13 7 24 30 25 18 20 19 21
9 9 8 9 11 13 15 17 18 19 20 24 30 27 12 8 7 10 8 4 2 5 7 10 11 6 10 12 17 24 10 7 15 5 5 10 6 5 41 31 28 22 18 16 20
11 10 7 10 13 17 22 23 23 23 23 23 22 17 9 2 2 5 2 4 6 8 13 14 15 16 10 30 10 8 7 5 3 4 1 4 6 12 37 34 27 22 16 11 13
11 10 6 10 14 18 21 22 19 18 17 16 13 8 7 5 5 8 6 11 11 13 15 15 13 13 14 11 7 9 6 8 2 3 4 7 6 15 34 29 27 22 16 8 7
9 8 4 7 11 15 18 17 16 12 11 8 7 3 4 5 8 9 10 11 9 19 15 8 9 8 8 6 12 13 8 7 7 5 4 6 10 10 32 33 31 26 20 12 4
7 6 4 5 12 14 16 15 10 3 9 12 8 9 7 6 7 7 8 12 12 10 7 10 9 7 6 3 1 10 6 6 1 1 3 10 9 16 31 32 32 31 26 19 11
4 5 3 4 12 13 15 3 1 9 20 16 12 12 9 5 4 6 6 4 6 6 4 10 2 2 2 6 7 7 6 2 1 2 1 2 14 16 28 32 46 42 36 29 21
6 5 3 5 14 14 11 4 11 12 10 9 11 7 5 5 8 9 6 7 11 8 8 8 1 3 5 7 7 5 5 4 2 4 2 6 13 12 16 36 44 44 39 35 28
4 3 3 6 9 13 9 12 13 6 9 4 5 6 5 8 9 10 10 6 11 8 6 9 4 3 6 7 2 7 2 5 7 5 5 4 10 10 13 23 26 54 49 44 38
2 1 2 5 8 15 14 17 7 5 7 3 6 1 7 4 8 7 10 6 8 7 6 1 3 4 6 4 3 5 4 7 5 7 6 2 2 14 10 16 34 45 64 54 46
2 2 4 8 9 11 23 15 4 12 10 6 7 9 4 8 4 5 4 12 13 9 11 5 4 6 4 6 6 10 9 9 7 5 4 6 10 10 13 23 11 39 68 66 56
3 1 5 8 11 15 22 9 10 9 7 10 1 3 5 6 5 6 3 5 9 10 0 6 4 4 3 9 9 4 8 5 8 6 10 4 4 18 11 14 16 44 71 77 62
2 0 3 5 15 22 25 10 9 5 11 4 2 4 4 9 4 2 5 1 4 7 6 11 9 8 2 1 10 8 9 9 13 6 6 5 13 14 11 14 23 38 75 79 68
3 5 7 12 17 25 9 8 14 12 8 12 4 7 9 5 1 3 9 9 11 13 16 9 1 2 5 2 3 7 7 5 13 4 7 7 15 20 5 6 6 23 57 78 71
5 8 10 15 18 20 8 8 4 1 6 1 8 2 8 6 1 1 6 5 5 5 1 9 6 2 3 2 3 7 6 6 5 3 7 8 11 13 8 13 10 18 52 73 65
9 9 7 16 18 7 7 13 8 5 5 3 6 5 7 7 10 6 7 6 3 7 6 6 6 1 5 12 14 2 3 5 3 7 10 2 12 13 10 13 20 31 52 69 62
8 5 12 22 5 4 6 11 6 6 5 5 3 6 11 9 8 5 10 9 7 14 11 7 9 7 13 1 3 6 9 9 8 10 4 4 17 4 9 13 25 36 50 56 52
9 7 11 21 6 4 6 4 4 6 6 5 7 5 5 11 1 8 8 2 12 3 11 9 3 5 11 8 7 6 9 7 7 5 12 10 14 1 5 11 9 36 46 49 44
8 3 5 9 6 12 8 6 3 8 5 8 6 5 5 5 4 5 6 4 10 5 5 6 5 12 13 10 8 5 6 14 11 7 7 22 12 10 7 10 8 19 34 42 41
11 6 11 4 6 9 7 10 8 10 8 13 2 11 13 8 2 9 4 3 2 8 7 7 8 5 7 7 5 8 9 16 24 19 15 26 25 20 15 19 32 30 36 31 27
8 10 10 9 13 10 4 12 17 7 15 9 8 5 12 12 14 13 12 6 10 3 6 5 3 4 9 2 9 13 15 14 30 26 31 38 51 16 22 14 26 40 45 37 33
16 13 8 11 6 8 10 12 14 16 13 6 16 9 12 21 14 2 17 7 10 15 6 7 10 6 10 8 8 20 21 39 15 9 26 21 44 11 6 23 43 50 46 46 33
Wind_Direction_850mb
272 272 277 267 271 269 263 251 246 241 231 224 217 215 214 204 208 212 229 271 252 262 258 201 197 183 164 141 140 121 81 184 188 170 145 44 125 79 93 95 72 79 95 82 26
273 267 259 265 259 259 258 251 247 243 233 227 218 207 202 187 181 201 275 254 254 254 236 174 163 156 136 142 102 84 143 158 15 5 116 87 97 111 109 90 87 85 84 78 64
263 277 277 275 280 284 269 250 239 233 227 219 213 204 200 194 216 259 291 258 257 248 217 158 154 144 112 121 41 53 116 138 47 95 112 101 90 98 126 62 128 131 107 78 56
312 302 282 288 297 288 270 253 237 223 217 212 209 202 196 189 217 317 326 272 241 226 194 162 152 132 108 108 73 91 59 97 103 121 106 100 109 80 87 122 124 114 105 85 57
353 328 311 314 330 318 311 258 227 212 205 202 198 194 186 194 298 320 311 294 241 223 206 168 149 128 111 98 82 86 118 72 81 99 95 121 81 116 115 128 123 116 102 77 60
5 350 3 20 20 13 33 91 137 162 177 182 185 188 190 153 304 317 312 294 249 223 206 179 159 115 95 59 54 108 107 97 71 76 103 110 126 85 150 143 128 122 101 80 56
14 17 40 61 63 65 81 98 112 125 142 163 178 185 186 191 313 316 318 330 187 183 151 164 152 132 102 96 108 125 87 66 35 37 118 115 112 141 159 157 141 129 111 84 58
22 18 51 82 85 101 102 99 103 111 119 134 152 162 126 106 354 345 30 91 139 140 144 142 139 113 82 114 75 70 69 143 20 39 175 106 236 175 170 163 146 140 128 97 63
20 18 44 107 102 119 115 106 106 110 117 129 143 149 87 53 50 56 87 115 128 135 131 136 139 89 114 94 50 12 205 202 216 51 156 167 252 186 180 177 160 160 159 141 77
21 20 35 120 120 127 132 121 114 110 108 110 118 129 72 27 56 66 109 123 114 130 120 111 73 77 43 94 207 189 201 209 207 201 175 189 255 201 189 187 180 179 181 182 170
25 25 31 147 152 145 141 127 126 97 71 71 50 84 70 67 65 55 109 115 109 77 64 29 81 194 155 77 67 141 151 157 26 24 193 215 248 218 193 198 186 190 194 198 203
9 22 31 173 171 166 161 145 135 145 93 68 73 78 70 60 81 65 104 92 76 79 355 34 134 168 350 54 93 95 121 189 318 29 78 353 258 234 205 211 202 197 200 204 206
347 3 28 180 181 177 173 167 149 144 79 54 62 63 50 56 66 19 54 80 80 67 14 143 127 308 122 46 105 49 154 168 76 355 112 332 278 201 229 216 214 215 215 209 214
341 16 45 129 168 185 180 161 151 151 75 333 346 24 24 104 52 51 63 91 47 128 96 87 315 115 80 83 2 160 118 95 98 79 238 23 270 254 209 209 211 215 211 211 210
347 72 112 169 165 168 165 154 123 104 27 351 360 22 41 105 128 42 57 77 96 99 116 208 43 75 88 61 340 125 120 88 74 86 23 189 66 266 150 230 221 209 213 211 211
342 171 153 152 164 166 162 157 87 44 261 327 339 359 21 29 45 92 109 86 109 90 51 91 32 42 89 58 42 141 78 56 58 73 4 216 167 266 191 218 199 207 212 210 207
343 163 151 165 157 156 164 158 42 125 329 297 157 50 15 2 27 30 69 111 144 84 316 1 7 5 114 82 14 63 83 12 354 8 223 152 141 250 243 222 212 197 206 208 205
44 345 136 164 153 154 153 55 92 253 220 194 148 81 99 1 330 28 100 304 296 97 112 151 302 169 103 169 179 185 154 162 204 203 268 328 234 251 213 278 244 223 211 204 201
118 121 108 130 149 157 158 70 204 203 164 154 71 71 319 17 39 309 212 209 205 178 163 126 194 34 56 35 81 216 202 181 102 69 40 226 288 301 218 258 210 198 196 196 197
153 133 114 139 146 157 77 230 180 236 102 171 168 108 183 262 112 219 199 224 168 207 28 197 76 30 137 82 56 152 198 80 1 163 261 280 280 243 283 238 213 191 187 191 194
160 140 141 149 146 155 156 219 233 191 149 181 211 139 190 187 174 222 244 280 192 136 93 123 98 201 56 199 177 92 256 36 125 151 177 245 259 218 233 229 207 206 195 190 193
184 67 162 161 94 31 151 187 169 176 189 230 152 154 173 152 166 246 227 213 188 157 166 193 134 174 206 152 61 160 205 162 137 240 230 153 265 293 257 303 221 212 201 197 199
162 120 169 177 136 281 319 303 218 137 189 177 211 196 190 177 136 200 218 345 170 138 168 204 270 27 340 354 6 210 194 163 118 103 207 142 266 59 329 327 257 218 210 207 210
167 62 123 180 140 132 134 246 204 197 199 165 181 107 117 187 179 227 243 177 176 179 130 116 94 170 191 200 131 203 230 183 143 143 164 231 303 292 260 259 235 210 207 207 212
179 201 164 211 250 119 107 156 162 211 209 195 215 197 165 166 26 221 172 141 198 197 110 118 195 160 263 233 167 214 186 194 205 205 189 261 226 237 225 222 221 203 181 183 202
204 158 152 122 140 104 338 216 189 189 149 246 188 216 166 172 184 196 139 193 205 28 129 17 227 89 305 314 224 268 220 215 227 234 253 264 271 181 257 246 223 211 204 215 242
209 187 164 155 87 98 216 199 207 158 212 199 186 136 192 233 196 272 181 163 172 153 157 124 131 95 266 343 325 287 209 208 204 208 215 224 246 160 252 224 236 231 216 235 250